Location: ??
(35.5052°N, 139.7262°E)
Time: 03:40:53
(UTC+00:00)

Cosmos 1076 Rocket - Pass Details

Date: 20 June 2021
Orbit: 590 x 611 km, 82.5° (Epoch: 26 July)

Event Time Altitude Azimuth Distance (km) Brightness Sun altitude
Exits shadow 16:20:44 50° 346° (NNW) 754 4.2 -26.7°
Drops below altitude 10° 16:23:59 10° 3° (N) 1,925 6.9 -26.4°
Sets 16:26:12 0° 5° (N) 2,831 8.0 -26.2°
